This is the latest recevied weather packets stored in our database for station/object KQ4OSL. If no packets are shown the sender has not sent any weather packets the latest 10 day(s).
| Time | Temp. | Humidity | Pressure | Rain* | Wind** | Luminosity | Snow |
|---|---|---|---|---|---|---|---|
| 1787708180 | 22.78° C | 86% | 1019.2 hPa | 0 mm | - | 0 W/m² | - |
| 1787707876 | 23.33° C | 85% | 1019.5 hPa | 0 mm | - | 0 W/m² | - |
| 1787707575 | 23.33° C | 85% | 1019.2 hPa | 0 mm | - | 0 W/m² | - |
| 1787707270 | 23.33° C | 84% | 1019.2 hPa | 0 mm | - | 0 W/m² | - |
| 1787706966 | 23.33° C | 84% | 1019.1 hPa | 0 mm | - | 0 W/m² | - |
| 1787706665 | 23.33° C | 83% | 1019.1 hPa | 0 mm | - | 0 W/m² | - |
| 1787706362 | 23.89° C | 82% | 1019 hPa | 0 mm | - | 0 W/m² | - |
| 1787706062 | 23.89° C | 81% | 1018.9 hPa | 0 mm | - | 0 W/m² | - |
| 1787705762 | 23.89° C | 81% | 1018.8 hPa | 0 mm | - | 0 W/m² | - |
| 1787705458 | 23.89° C | 79% | 1018.7 hPa | 0 mm | - | 0 W/m² | - |
| 1787705154 | 24.44° C | 79% | 1018.8 hPa | 0 mm | - | 0 W/m² | - |
| 1787704854 | 24.44° C | 79% | 1018.7 hPa | 0 mm | - | 0 W/m² | - |
| 1787704549 | 24.44° C | 78% | 1018.7 hPa | 0 mm | - | 0 W/m² | - |
| 1787704245 | 25° C | 77% | 1018.6 hPa | 0 mm | - | 0 W/m² | - |
| 1787703944 | 25° C | 76% | 1018.4 hPa | 0 mm | - | 0 W/m² | - |
| 1787703640 | 25° C | 75% | 1018.6 hPa | 0 mm | - | 1 W/m² | - |
| 1787703335 | 25° C | 76% | 1018.4 hPa | 0 mm | - | 2 W/m² | - |
| 1787703030 | 25° C | 74% | 1018.4 hPa | 0 mm | - | 4 W/m² | - |
| 1787702725 | 25.56° C | 73% | 1018.4 hPa | 0 mm | - | 6 W/m² | - |
| 1787702421 | 26.11° C | 73% | 1018.3 hPa | 0 mm | - | 8 W/m² | - |
| 1787702121 | 26.67° C | 69% | 1017.9 hPa | 0 mm | - | 10 W/m² | - |
| 1787701817 | 26.67° C | 68% | 1018.1 hPa | 0 mm | - | 13 W/m² | - |
| 1787701513 | 27.22° C | 65% | 1018.2 hPa | 0 mm | - | 16 W/m² | - |
| 1787701207 | 27.78° C | 63% | 1018 hPa | 0 mm | - | 17 W/m² | - |
| 1787700903 | 28.33° C | 63% | 1018.1 hPa | 0 mm | - | 19 W/m² | - |
* Rain latest hour (hover to see other rain measurements)
** Current wind speed in m/s (hover to see current wind gust speed)